Date,TemperatureHighF,TemperatureAvgF,TemperatureLowF,DewpointHighF,DewpointAvgF,DewpointLowF,HumidityHigh,HumidityAvg,HumidityLow,PressureMaxIn,PressureMinIn,WindSpeedMaxMPH,WindSpeedAvgMPH,GustSpeedMaxMPH,PrecipitationSumIn
2013-3-1,59.0,55.0,50.0,51.0,42.5,37.0,89,64,44,0.00,40.00,11,7,0,0.00
2013-3-2,59.0,51.0,40.0,42.0,36.7,33.0,87,59,41,0.00,40.00,15,8,0,0.00
2013-3-3,55.0,45.5,36.0,39.0,33.2,30.0,88,63,45,0.00,40.00,16,9,0,0.00
2013-3-4,66.0,49.1,34.0,39.0,30.1,24.0,92,54,20,0.00,40.00,10,5,0,0.00
2013-3-5,78.0,59.8,40.0,56.0,46.0,38.0,92,65,32,0.00,40.00,12,7,0,0.00
2013-3-6,69.0,58.7,47.0,61.0,42.5,25.0,95,61,19,0.00,40.00,18,11,0,0.00
2013-3-7,68.0,52.6,41.0,44.0,37.1,32.0,76,57,32,0.00,40.00,11,6,0,0.00
2013-3-8,76.0,57.4,40.0,48.0,40.4,28.0,95,61,17,0.00,40.00,8,5,0,0.00
2013-3-9,74.0,60.9,49.0,51.0,48.2,43.0,92,66,34,0.00,40.00,11,7,0,0.00
2013-3-10,78.0,64.4,53.0,56.0,53.5,51.0,96,70,39,0.00,40.00,13,8,0,0.00
2013-3-11,78.0,66.6,55.0,60.0,56.7,54.0,95,72,47,0.00,40.00,14,7,0,0.00
2013-3-12,71.0,65.5,55.0,67.0,61.6,53.0,96,87,73,0.00,40.00,15,9,0,0.20
2013-3-13,75.0,60.8,50.0,53.0,42.3,32.0,95,57,21,0.00,40.00,14,8,0,0.00
2013-3-14,69.0,55.8,47.0,46.0,35.5,26.0,91,52,20,0.00,40.00,14,8,0,0.00
2013-3-15,71.0,55.8,43.0,44.0,38.4,28.0,92,58,25,0.00,40.00,11,6,0,0.00
2013-3-16,77.0,60.2,43.0,53.0,44.6,39.0,96,62,25,0.00,40.00,8,4,0,0.00
2013-3-17,75.0,62.2,47.0,59.0,52.3,46.0,97,73,47,0.00,40.00,12,4,0,0.00
2013-3-18,78.0,68.5,61.0,66.0,62.4,58.0,94,81,59,0.00,40.00,20,7,0,0.06
2013-3-19,85.0,70.4,62.0,66.0,62.4,58.0,98,79,40,0.00,40.00,8,4,0,0.00
2013-3-20,75.0,66.8,61.0,65.0,61.7,57.0,97,84,61,0.00,40.00,15,6,0,0.00
2013-3-21,72.0,60.1,49.0,60.0,41.9,28.0,97,58,19,0.00,40.00,12,7,0,0.00
2013-3-22,77.0,59.6,42.0,64.0,50.6,35.0,96,74,40,0.00,40.00,12,6,0,0.22
2013-3-23,86.0,72.6,62.0,73.0,66.4,62.0,99,83,49,0.00,40.00,16,7,0,0.00
2013-3-24,84.0,74.2,69.0,72.0,69.7,67.0,96,86,62,0.00,40.00,21,10,0,0.00
2013-3-25,75.0,64.8,51.0,70.0,46.5,24.0,97,59,17,0.00,40.00,16,9,0,0.00
2013-3-26,60.0,52.7,45.0,45.0,31.8,24.0,73,47,28,0.00,40.00,18,11,0,0.00
2013-3-27,64.0,50.5,38.0,38.0,32.4,28.0,87,53,27,0.00,40.00,10,7,0,0.00
2013-3-28,71.0,55.2,41.0,43.0,34.6,25.0,91,53,18,0.00,40.00,8,5,0,0.00
2013-3-29,74.0,59.7,47.0,47.0,39.5,31.0,87,54,21,0.00,40.00,10,6,0,0.00
2013-3-30,78.0,63.1,46.0,54.0,48.4,44.0,95,63,34,0.00,40.00,10,5,0,0.00
2013-3-31,81.0,69.3,57.0,57.0,52.5,-99.9,86,59,38,0.00,40.00,10,6,0,0.00